Weather History for Palma de Mallorca, Spain

Change the Weather History Date:

Sunday, March 2, 2014

  Actual Average Record
Temperature  
Mean Temperature 52 °F -  
Max Temperature 62 °F 62 °F 71 °F (2007)
Min Temperature 42 °F 41 °F 33 °F (2004)
Degree Days  
Heating Degree Days 13    
Growing Degree Days 2 (Base 50)    
Moisture  
Dew Point 46 °F    
Average Humidity 75    
Maximum Humidity 94    
Minimum Humidity 39    
Precipitation  
Precipitation 0.00 in 0.05 in - ()
Sea Level Pressure  
Sea Level Pressure 29.64 in    
Wind  
Wind Speed 4 mph ()    
Max Wind Speed 18 mph    
Max Gust Speed -    
Visibility 7.3 miles    
Events      
Averages and records for this station are not official NWS values.
T = Trace of Precipitation, MM = Missing Value Source: Averaged Metar Reports

Daily Weather History Graph

Daily Weather History Graph

Search for Another Location

Airport:

Trip Planner

Search our weather history database for the weather conditions in past years. The results will help you decide how hot, cold, wet, or windy it might be!

Date:

Astronomy

Mar. 02, 2014 Rise Set
Actual Time 7:20 AM CET 6:42 PM CET
Civil Twilight 6:53 AM CET 7:09 PM CET
Nautical Twilight 6:22 AM CET 7:40 PM CET
Astronomical Twilight 5:51 AM CET 8:11 PM CET
Moon 7:43 AM CET (3/2) 8:20 PM CET (3/2)
Length of Visible Light 12h 15m
Length of Day
11h 21m
New Moon, 2% of the Moon is Illuminated
Mar 2
New Moon
Mar 8
First Quarter
Mar 16
Full
Mar 24
Last Quarter
Mar 30
New

Hourly Weather History & Observations

Time (CET) Temp. Windchill Dew Point Humidity Pressure Visibility Wind Dir Wind Speed Gust Speed Precip Events Conditions
12:00 AM 51 °F - 49 °F 88% 29.54 in - WNW 3.5 mph - -  
12:00 AM 51.8 °F - 48.2 °F 88% 29.53 in 6.2 mi Variable 1.2 mph - N/A   Partly Cloudy
12:30 AM 50.0 °F - 46.4 °F 87% 29.53 in 6.2 mi Calm Calm - N/A   Partly Cloudy
1:00 AM 53 °F - 45 °F 66%  in 9 mi WNW 4.6 mph - -   Partly Cloudy
1:00 AM 53.6 °F - 44.6 °F 72% 29.53 in 6.2 mi Calm Calm - N/A   Partly Cloudy
1:30 AM 53.6 °F - 44.6 °F 72% 29.53 in 6.2 mi Calm Calm - N/A   Partly Cloudy
2:00 AM 51 °F - 44 °F 71%  in - NNW 4.6 mph - -  
2:00 AM 51.8 °F - 44.6 °F 76% 29.50 in 6.2 mi Variable 1.2 mph - N/A   Partly Cloudy
2:30 AM 48.2 °F - 42.8 °F 82% 29.53 in 6.2 mi Calm Calm - N/A   Partly Cloudy
3:00 AM 48 °F - 42 °F 75%  in - Calm Calm - -  
3:00 AM 48.2 °F - 42.8 °F 82% 29.53 in 6.2 mi Calm Calm - N/A   Partly Cloudy
3:30 AM 48.2 °F - 42.8 °F 82% 29.53 in 6.2 mi Calm Calm - N/A   Partly Cloudy
4:00 AM 46 °F - 42 °F 83% 29.52 in 9 mi NE 1.2 mph - -   Scattered Clouds
4:00 AM 46.4 °F - 41.0 °F 81% 29.50 in 6.2 mi Variable 1.2 mph - N/A   Partly Cloudy
4:30 AM 46.4 °F - 42.8 °F 87% 29.53 in 6.2 mi Calm Calm - N/A   Partly Cloudy
5:00 AM 44 °F - 40 °F 82% 29.55 in - ENE 4.6 mph - -  
5:00 AM 44.6 °F 41.4 °F 39.2 °F 81% 29.53 in 6.2 mi ENE 5.8 mph - N/A   Partly Cloudy
5:30 AM 44.6 °F - 41.0 °F 87% 29.53 in 6.2 mi Calm Calm - N/A   Partly Cloudy
6:00 AM 45 °F - 41 °F 82% 29.58 in - SSE 1.2 mph - -  
6:00 AM 44.6 °F - 41.0 °F 87% 29.56 in 6.2 mi Variable 1.2 mph - N/A   Partly Cloudy
6:30 AM 44.6 °F - 39.2 °F 81% 29.56 in 6.2 mi Calm Calm - N/A   Partly Cloudy
7:00 AM 43 °F - 40 °F 84% 29.61 in 12 mi Calm Calm - -   Partly Cloudy
7:00 AM 42.8 °F - 39.2 °F 87% 29.59 in 6.2 mi NE 2.3 mph - N/A   Partly Cloudy
7:30 AM 42.8 °F - 39.2 °F 87% 29.59 in 6.2 mi Calm Calm - N/A   Partly Cloudy
8:00 AM 44 °F - 41 °F 86% 29.64 in - East 1.2 mph - -  
8:00 AM 44.6 °F - 42.8 °F 93% 29.62 in 6.2 mi East 2.3 mph - N/A   Partly Cloudy
8:30 AM 48.2 °F - 44.6 °F 87% 29.62 in 6.2 mi Calm Calm - N/A   Partly Cloudy
9:00 AM 52 °F - 43 °F 62% 29.67 in - Calm Calm - -  
9:00 AM 51.8 °F - 44.6 °F 76% 29.65 in 6.2 mi Calm Calm - N/A   Partly Cloudy
9:30 AM 55.4 °F - 44.6 °F 67% 29.65 in 6.2 mi Variable 1.2 mph - N/A   Partly Cloudy
10:00 AM 56 °F - 42 °F 48% 29.69 in 19 mi East 4.6 mph - -   Scattered Clouds
10:00 AM 55.4 °F - 44.6 °F 67% 29.68 in 6.2 mi ENE 4.6 mph - N/A   Partly Cloudy
10:30 AM 57.2 °F - 42.8 °F 59% 29.68 in 6.2 mi Variable 2.3 mph - N/A   Partly Cloudy
11:00 AM 60 °F - 43 °F 43% 29.69 in - NW 1.2 mph - -  
11:00 AM 59.0 °F - 44.6 °F 59% 29.68 in 6.2 mi Calm Calm - N/A   Partly Cloudy
11:30 AM 60.8 °F - 44.6 °F 55% 29.68 in 6.2 mi NW 6.9 mph - N/A   Partly Cloudy
12:00 PM 62 °F - 44 °F 39% 29.71 in - WNW 9.2 mph - -  
12:00 PM 60.8 °F - 44.6 °F 55% 29.68 in 6.2 mi NW 12.7 mph - N/A   Partly Cloudy
12:30 PM 60.8 °F - 46.4 °F 59% 29.68 in 6.2 mi West 10.4 mph - N/A   Partly Cloudy
1:00 PM 62 °F - 44 °F 40% 29.71 in 19 mi WNW 8.1 mph - -   Scattered Clouds
1:00 PM 60.8 °F - 44.6 °F 55% 29.71 in 6.2 mi West 9.2 mph - N/A   Partly Cloudy
1:30 PM 60.8 °F - 48.2 °F 63% 29.71 in 6.2 mi SW 10.4 mph - N/A   Partly Cloudy
2:00 PM 60 °F - 47 °F 52% 29.71 in - SSW 16.1 mph - -  
2:00 PM 59.0 °F - 46.4 °F 63% 29.71 in 6.2 mi SW 16.1 mph - N/A   Partly Cloudy
2:30 PM 57.2 °F - 48.2 °F 72% 29.68 in 6.2 mi SW 15.0 mph - N/A   Partly Cloudy
3:00 PM 61 °F - 48 °F 52% 29.70 in - SW 18.4 mph - -  
3:00 PM 59.0 °F - 48.2 °F 67% 29.68 in 6.2 mi WSW 13.8 mph - N/A   Partly Cloudy
3:30 PM 59.0 °F - 50.0 °F 72% 29.68 in 6.2 mi WSW 16.1 mph - N/A   Partly Cloudy
4:00 PM 60 °F - 49 °F 58% 29.70 in 19 mi SW 18.4 mph - -   Scattered Clouds
4:00 PM 59.0 °F - 50.0 °F 72% 29.68 in 6.2 mi SW 16.1 mph - N/A   Partly Cloudy
4:30 PM 57.2 °F - 50.0 °F 77% 29.68 in 6.2 mi SW 12.7 mph - N/A   Partly Cloudy
5:00 PM 59 °F - 51 °F 67% 29.70 in - SW 16.1 mph - -  
5:00 PM 57.2 °F - 50.0 °F 77% 29.68 in 6.2 mi SW 12.7 mph - N/A   Partly Cloudy
5:30 PM 57.2 °F - 50.0 °F 77% 29.68 in 6.2 mi SW 10.4 mph - N/A   Partly Cloudy
6:00 PM 58 °F - 50 °F 66% 29.71 in - SW 11.5 mph - -  
6:00 PM 57.2 °F - 50.0 °F 77% 29.68 in 6.2 mi SW 9.2 mph - N/A   Partly Cloudy
6:30 PM 55.4 °F - 50.0 °F 82% 29.71 in 6.2 mi SW 8.1 mph - N/A   Partly Cloudy
7:00 PM 56 °F - 49 °F 71% 29.71 in 16 mi SW 8.1 mph - -   Scattered Clouds
7:00 PM 55.4 °F - 50.0 °F 82% 29.68 in 6.2 mi SW 6.9 mph - N/A   Partly Cloudy
7:30 PM 57.2 °F - 50.0 °F 77% 29.68 in 6.2 mi SW 4.6 mph - N/A   Partly Cloudy
8:00 PM 55 °F - 51 °F 82% 29.70 in - South 3.5 mph - -  
8:00 PM 55.4 °F - 51.8 °F 88% 29.68 in 6.2 mi SE 3.5 mph - N/A   Partly Cloudy
8:30 PM 55.4 °F - 50.0 °F 82% 29.68 in 6.2 mi Variable 2.3 mph - N/A   Partly Cloudy
9:00 PM 51 °F - 48 °F 87% 29.71 in - East 2.3 mph - -  
9:00 PM 51.8 °F - 48.2 °F 88% 29.68 in 6.2 mi SSE 1.2 mph - N/A   Partly Cloudy
9:30 PM 50.0 °F - 46.4 °F 87% 29.68 in 6.2 mi SE 1.2 mph - N/A   Scattered Clouds
10:00 PM 50 °F - 48 °F 89% 29.70 in 9 mi NE 2.3 mph - -   Partly Cloudy
10:00 PM 50.0 °F - 48.2 °F 94% 29.68 in 6.2 mi Calm Calm - N/A   Scattered Clouds
10:30 PM 50.0 °F - 48.2 °F 94% 29.68 in 6.2 mi Variable 2.3 mph - N/A   Partly Cloudy
11:00 PM 50 °F - 48 °F 90% 29.67 in - Calm Calm - -  
11:00 PM 50.0 °F - 48.2 °F 94% 29.65 in 6.2 mi Calm Calm - N/A   Scattered Clouds
11:30 PM 50.0 °F - 48.2 °F 94% 29.65 in 6.2 mi NNE 1.2 mph - N/A   Scattered Clouds